User: anonymous   Login
Location: Fairmont
(43.6520°N, 94.4610°W)
Time: 14:23:57
(UTC-05:00)
Language:

Cosmos-2242 - Orbit

View from above orbital plane
View from above orbital plane
View from above satellite
View from above satellite

Ground track
Ground track

The orbit data is extracted from the following two-line orbital elements,

1 22626U 93024A   18111.10993792  .00000196  00000-0  18673-4 0  9993
2 22626  82.5191 111.5053 0019080 173.8919 186.2535 14.87789847351932
Epoch (UTC): 21 April 2018 02:38:18
Eccentricity: 0.0019080
inclination: 82.5191°
perigee height: 591 km
apogee height: 618 km
right ascension of ascending node: 111.5053°
argument of perigee: 173.8919°
revolutions per day: 14.87789847
mean anomaly at epoch: 186.2535°
orbit number at epoch: 35193

The dashed part of the orbit path shows where the satellite is in the earth's shadow,  

DLR